Regional Weather Roundup
Issued by NWS Wakefield, VA

Home | Current Version | Previous Version | Graphics & Text | Print | Product List | Glossary On
Versions: 1 2 3 4 5 6 7 8 9 10 11 12 13 14 15 16 17 18 19 20 21 22 23 24 25 26 27
000
ASUS41 KAKQ 241015
RWRAKQ

REGIONAL WEATHER ROUNDUP
NATIONAL WEATHER SERVICE WAKEFIELD VA
500 AM EST FRI FEB 24 2017

Note: "fair" indicates few or no clouds below 12,000 feet with no
significant weather and/or obstructions to visibility. * = Denotes
station may not report precipitation (e.g., rain,snow,etc.),
thunder or fog.

VAZ042-051-052>054-056-241100-
NORTHERN VIRGINIA

CITY           SKY/WX    TMP DP  RH WIND       PRES   REMARKS
WASH NATIONAL  CLEAR     58  53  84 S3        29.91S
DULLES         PTCLDY    56  50  80 S5        29.89S
FORT BELVOIR   CLEAR     48  46  92 CALM      29.91R
QUANTICO       CLEAR     54  53  97 SW7       29.92S
FREDERICKSBRG* CLEAR     50  50 100 CALM      29.91R
STAFFORD*      CLEAR     50  50 100 CALM      29.95S
WARRENTON      CLEAR     55  49  80 S3        29.89S
CULPEPER*      CLEAR     46  46  97 CALM      29.91S
MANASSAS*      CLEAR     45  43  93 S3        29.90S
LEESBURG*      CLEAR     55  54  94 MISG      29.90S
WINCHESTER     PTCLDY    55  50  82 SW8       29.87S
FRONT ROYAL*   NOT AVBL
LURAY*         NOT AVBL
$$

VAZ048-049-060>072-079>083-241100-
CENTRAL AND SOUTH CENTRAL VIRGINIA

CITY           SKY/WX    TMP DP  RH WIND       PRES   REMARKS
RICHMOND       PTCLDY    52  52 100 S3        29.93R
CHESTERFIELD*  FAIR      52  36  54 CALM      29.94S
PETERSBURG*    FOG       44  43  97 CALM      29.94S VSB 3/4
HANOVER        CLEAR     55  52  89 SE5       29.94R
TAPPAHANNOCK*  CLEAR     55  55 100 S3        29.94R
QUINTON*       NOT AVBL
CHARLOTTSVILLE CLOUDY    52  49  89 CALM      29.89S
GORDONSVILLE*  NOT AVBL
ORANGE*        PTCLDY    46  46 100 CALM      29.91S
LOUISA*        CLEAR     55  54  94 SE3       29.90S
BUMPASS*       NOT AVBL
FARMVILLE*     CLEAR     51  51 100 CALM      29.90F
CREWE*         NOT AVBL
FORT PICKETT*  NOT AVBL
CHASE CITY*    NOT AVBL
CLARKSVILLE*   NOT AVBL
SOUTH HILL*    CLOUDY    48  48 100 CALM      29.99R VSB 1/4
LAWRENCEVILLE* NOT AVBL
EMPORIA*       CLOUDY    43  43 100 CALM      29.95S
$$

VAZ088>098-241100-
SOUTHEAST VIRGINIA

CITY           SKY/WX    TMP DP  RH WIND       PRES   REMARKS
NORFOLK        CLEAR     54  52  93 CALM      29.93S
VIRGINIA BEACH CLEAR     58  53  84 S8        29.93S
NORFOLK NAVAL  CLEAR     52  49  89 CALM      29.95R
WEST POINT*    CLEAR     46  45  97 CALM      29.95R
SALUDA*        NOT AVBL
NEWPORT NEWS   FOG       46  45  96 CALM      29.94R VSB 1/2
LANGLEY AFB    CLEAR     50  50 100 CALM      29.93R
FORT EUSTIS    CLEAR     50  47  90 CALM      29.92R
WILLIAMSBURG*  CLEAR     52  52 100 CALM      29.95R
HR EXEC AP*    NOT AVBL
FRANKLIN*      CLOUDY    45  44  95 CALM      29.94R
US460-WAKEFLD  CLEAR     47  46  97 CALM      29.94R
$$

VAZ020-022-025-037-045-241100-
WEST CENTRAL AND SOUTHWEST VIRGINIA

CITY           SKY/WX    TMP DP  RH WIND       PRES   REMARKS
STAUNTON*      PTCLDY    42  42  98 CALM      29.92R
WAYNESBORO*    NOT AVBL
HOT SPRINGS VA CLEAR     52  43  71 CALM      29.95R
LYNCHBURG      NOT AVBL
DANVILLE       CLEAR     47  47 100 CALM      29.92R
SOUTH BOSTON*  NOT AVBL
MARTINSVILLE   CLEAR     42  42  97 CALM      29.94R
ROANOKE        CLEAR     48  47  96 CALM      29.92S
BLACKSBURG     CLOUDY    46  45  97 CALM      29.96R
DUBLIN*        FOG       46  46 100 CALM      29.94R VSB 1/4
MARION*        CLEAR     49  48  96 CALM      29.94S
HILLSVILLE*    CLEAR     53  50  92 CALM      29.92S
RICHLANDS*     FAIR      56  46  70 CALM      29.89S
WISE*          MOCLDY    57  45  62 S10G18    29.88S
ABINGDON*      CLEAR     53  48  84 CALM      29.88F
$$

MDZ021>025-VAZ099-100-241100-
SOUTHERN MARYLAND AND THE DELMARVA PENINSULA

CITY           SKY/WX    TMP DP  RH WIND       PRES   REMARKS
PATUXENT RIVER CLEAR     47  47 100 SE5       29.93R
BAY BRIDGE APT PTCLDY    52  50  93 S7        29.92R
LEONARDTOWN    CLEAR     54  52  94 CALM      29.94S
DOVER          CLEAR     51  51 100 SE8       29.93R
GEORGETOWN     CLEAR     55  52  89 S7        29.95R
EASTON         CLEAR     54  51  89 S6        29.97R
CAMBRIDGE        N/A     50  48  93 S3        29.94R
SALISBURY      CLEAR     53  52  96 CALM      29.94S
OCEAN CITY     CLEAR     51  50  96 S3        29.96R
WALLOPS ISLAND CLEAR     49  49 100 CALM      29.96S
ACCOMACK*      CLEAR     53  51  94 S5        29.95R
$$

NCZ012>017-030>032-241100-
NORTH CENTRAL AND EASTERN NORTH CAROLINA

CITY           SKY/WX    TMP DP  RH WIND       PRES   REMARKS
ROANOKE RAPIDS FOG       45  45 100 CALM      29.93S VSB 1/4
RALEIGH        PTCLDY    50  49  96 CALM      29.92F
ELIZABETH CITY CLEAR     54  53  97 E5        29.93F
AHOSKIE*         N/A     49  48  97 CALM      29.93R
EDENTON*       CLEAR     56  55  94 CALM      29.93S
CURRITUCK*     CLOUDY    58  58 100 CALM      29.94F
KILL DEVIL HLS NOT AVBL
MANTEO         CLOUDY    59  59 100 CALM      29.95R
CAPE HATTERAS  CLOUDY    63  60  90 N3        29.92S
TARBORO*       NOT AVBL
GOLDSBORO      CLEAR     52  52 100 CALM      29.90S
WASHINGTON     PTCLDY    55  55  99 CALM      29.92S
GREENVILLE     FOG       48  48 100 CALM      29.94S VSB 1/2
NEW BERN       FOG       53  53 100 CALM      29.92S VSB 1
WILMINGTON     PTCLDY    54  54 100 NE3       29.88F FOG
$$

VAZ048-241100-
ELSEWHERE

CITY           SKY/WX    TMP DP  RH WIND       PRES   REMARKS
HARRISBURG PA  MOCLDY    54  50  86 SE6       29.87R
BALTIMORE      PTCLDY    48  48 100 E3        29.90S
ANNAPOLIS      CLEAR     50  48  93 SE7       29.91S
ANDREWS AFB    CLEAR     54  51  90 S7        29.90S
PHILADELPHIA   PTCLDY    52  49  89 S7        29.93R
HENDERSON NC   CLEAR     46  45  95 S3        29.93R
GREENSBORO     CLEAR     53  52  96 CALM      29.91R
ROCKY MOUNT    FOG       49  49 100 CALM      29.93R VSB 3/4
$$

VAZ100-241100-
MARINE

STATION/POSITION TIME  TEMP    WIND        PRES    WAVE   SWELL
                       AIR SEA DIR/SP/G            HT/PER HT/PER
                 (UTC) (F)     (DEG/KT/KT) (MB)    (FT/S) (FT/S)
CAPE MAY NJ      0948   51 44  160/  8/ 11 1013.8R
LEWES DE         0948   58 43  190/  5/  8 1013.8R
OCEAN-CITY-INLET 0948   48 44  220/  6/  7 1014.8R
WACHAPREAGUE VA  0948   52 53  160/  1/  2 1014.1R
THOMAS POINT MD  1000   49 44  170/  7/  7   N/A
GOOSES REEF MD   0950   48     170/ 10/ 12 1013.9R
COVE POINT MD    0948   47     180/ 10/ 11 1014.1R
SOLOMONS ISLAND  0942   49 45   90/  7/  8   N/A
BISHOPS HEAD MD  0948   49 51  160/  7/  7 1014.0R
PINEY POINT MD   0948          120/  6/  6   N/A
POTOMAC MD       0950   50     180/  4/  4 1012.8R
CAMBRIDGE MD     0948   54 43  180/  5/  9 1013.0R
LEWISETTA VA     0948   56 49  210/  5/  6 1013.2R
RAPPAHANNOCK LGT 0948          150/  8/  8 1014.3R
YORK RVR RNG VA  0948   51     180/  5/  5 1013.1R
YORKTOWN VA      0948   51 48   CALM  /  1 1013.4R
JAMESTOWN VA     0950   53      CALM  /  2   N/A
DOMINION TERM VA 0948   57     140/  1/  2 1013.6R
KIPTOPEKE VA     0948      48  150/  7/  8   N/A
CHES BAY BRIDGE  0948   56 48  140/  3/  3 1013.4S
CAPE HENRY VA    0948   60     160/  9/ 12   N/A
WILLOUBY STN VA  0948   55      CALM  /  1 1014.5R
S CRANEY ISL VA  0948   54     220/  1/  2 1013.2S
CAPE HENRY BUOY  0942      49                N/A     3/13   2/13
OFFSHORE WE BUOY 0951      49                N/A     3/10   2/12
64NM E OF VA BCH 0950   57 54   90/  6/  8 1013.8F   4/11   3/11
DUCK PIER NC     0948   53 49   10/  4/  6 1013.3S
44100 DUCK FRF   0905      49                N/A     4/12   3/12
44056 DUCK FRF   0930      50                N/A     4/13   2/13
OREGON INLET NC  0942   60 56   70/  5/  6 1013.7
HATTERAS NC      0948   63 62  340/  4/  5 1012.8F
DIAMOND SHLS NC  0950   70 73  120/ 14/ 17 1012.7S   7/ 8   7/ 8
CAPE LOOKOUT NC  0900   63      10/  4/  5 1012.1F
$$




USA.gov is the U.S. government's official web portal to all federal, state and local government web resources and services.